This demonstration page uses our WeatherBlox Daily Observations layout. Learn more.

Left ArrowRight Arrow

Hourly Observations for April 11, 2017

Temp ( °F °C ) Dew Point ( °F °C ) Humidity (%) Winds ( mph kmh ) Pressure ( in mb ) Visibility ( mi km ) Precip ( " mm )
12:53 am 00:53 Cloudy 43 6.1 25 -3.9 49 49 SW 13 20 30.04 1017 10 16 0.00 0.00
1:53 am 01:53 Clear 38 3.3 24 -4.4 57 57 SW 15 24 30.04 1017 10 16 0.00 0.00
2:53 am 02:53 Clear 34 1.1 25 -3.9 70 70 SW 12 19 30.05 1018 10 16 0.00 0.00
3:53 am 03:53 Clear 35 1.7 25 -3.9 67 67 SSW 14 22 30.04 1017 10 16 0.00 0.00
4:53 am 04:53 Clear 33 0.6 25 -3.9 72 72 SW 17 28 30.05 1018 10 16 0.00 0.00
5:53 am 05:53 Mostly Clear 34 1.1 24 -4.4 67 67 SSW 20 31 30.04 1017 10 16 0.00 0.00
6:53 am 06:53 Mostly Sunny 33 0.6 25 -3.9 72 72 SW 17 28 30.06 1018 10 16 0.00 0.00
7:53 am 07:53 Cloudy 36 2.2 25 -3.9 64 64 SW 20 31 30.08 1019 10 16 0.00 0.00
8:53 am 08:53 Cloudy with Light Snow 37 2.8 26 -3.3 65 65 WSW 16 26 30.10 1019 10 16 0.00 0.03
9:03 am 09:03 Cloudy with Light Snow 36 2 27 -3 70 70 WSW 14 22 30.12 1020 3 4 0.00 0.00
9:10 am 09:10 Cloudy with Light Snow 36 2 28 -2 75 75 SW 14 22 30.12 1020 3 5 0.00 0.00
9:53 am 09:53 Cloudy 41 5 27 -2.8 57 57 WSW 18 30 30.09 1019 10 16 0.00 0.03
10:53 am 10:53 Cloudy 44 6.7 28 -2.2 53 53 W 22 35 30.09 1019 10 16 0.00 0.00
11:53 am 11:53 Mostly Cloudy 50 10 27 -2.8 41 41 W 23 37 30.07 1018 10 16 0.00 0.00
12:53 pm 12:53 Mostly Cloudy 53 11.7 26 -3.3 35 35 WNW 17 28 30.06 1018 10 16 0.00 0.00
1:53 pm 13:53 Mostly Cloudy 52 11.1 27 -2.8 38 38 WNW 16 26 30.07 1018 10 16 0.00 0.00
2:53 pm 14:53 Partly Cloudy 55 12.8 24 -4.4 30 30 W 15 24 30.06 1018 10 16 0.00 0.00
3:53 pm 15:53 Mostly Cloudy 54 12.2 24 -4.4 31 31 W 10 17 30.06 1018 10 16 0.00 0.00
4:53 pm 16:53 Sunny 53 11.7 23 -5 31 31 NW 13 20 30.06 1018 10 16 0.00 0.00
5:53 pm 17:53 Mostly Sunny 56 13.3 24 -4.4 29 29 NW 7 11 30.06 1018 10 16 0.00 0.00
6:53 pm 18:53 Sunny 55 12.8 22 -5.6 28 28 NW 5 7 30.06 1018 10 16 0.00 0.00
7:53 pm 19:53 Sunny 50 10 24 -4.4 36 36 NNE 6 9 30.07 1018 10 16 0.00 0.00
8:53 pm 20:53 Clear 45 7.2 27 -2.8 49 49 ENE 7 11 30.09 1019 10 16 0.00 0.00
9:53 pm 21:53 Clear 38 3.3 28 -2.2 68 68 E 7 11 30.11 1020 10 16 0.00 0.00
10:53 pm 22:53 Clear 37 2.8 27 -2.8 67 67 ENE 9 15 30.10 1019 10 16 0.00 0.00
11:53 pm 23:53 Clear 37 2.8 27 -2.8 67 67 ENE 6 9 30.10 1019 10 16 0.00 0.00

Powered by AerisWeather